Lid_Strength_Index
1 1 2 2 2 2 1 1 0 0 0 1 0 0 0 1 0 1 1 2 1 2
1 1 2 1 1 1 1 1 0 0 1 1 0 1 2 1 1 2 1 2 2 3
1 1 1 1 1 1 1 1 1 1 1 1 1 0 1 2 1 2 2 2 3 4
2 2 1 1 1 1 1 1 1 1 1 1 1 1 2 2 2 2 3 3 4 4
2 1 2 1 1 1 1 1 2 2 2 2 3 2 2 3 3 4 4 5 5 5
2 2 2 1 1 1 2 2 3 3 3 3 3 3 3 3 4 3 5 5 6 6
2 2 2 2 2 3 3 3 3 3 3 3 3 3 3 3 4 4 5 6 6 7
2 2 3 4 3 2 3 3 3 4 3 4 5 5 3 4 4 5 5 5 7 8
3 4 4 4 3 4 4 4 5 4 6 7 8 9 6 4 5 5 6 6 7 8
4 4 4 5 5 5 5 6 6 6 7 8 9 10 8 7 7 7 8 8 8 10
5 6 6 6 7 6 7 7 7 8 8 10 11 11 11 8 9 10 10 10 10 12
7 7 7 8 7 7 8 8 8 8 9 11 11 12 12 8 8 10 10 12 12 12
7 7 7 7 7 8 8 9 8 9 9 10 11 13 12 9 8 8 10 11 13 13
8 8 8 8 8 8 9 9 10 9 9 10 11 12 12 11 9 8 10 11 11 10